C/2017 A1 ( PanSTARRS )

Japanese version
Home page
Updated on January 8, 2017

---------------------------------------------------------------------

* Profile

Discovery Date January 2, 2017
Magnitude 19.6 mag
Discoverer Pan-STARRS 1 telescope (Haleakala)

* Orbital Elements

T 2017 May 17.67696 TT                                  MPCW
q   2.3296909            (2000.0)            P               Q
                   Peri.    1.79228     -0.51906417     -0.53240664
                   Node   120.14292     +0.77427069     -0.62425079
e   1.0            Incl.   50.64448     +0.36204597     +0.57171157
From 53 observations 2017 Jan. 2-6.

* Magnitudes Graph

        m1 = 12.5 + 5 log d + 10.0 log r

---------------------------------------------------------------------

The orbital elements are published on M.P.E.C. 2017-A31.
The magnitudes graphs are made with Comet for Windows.

---------------------------------------------------------------------

Copyright(C) Seiichi Yoshida (comet@aerith.net). All rights reserved.